Miscellaneous Local Product
Issued by NWS North Platte, NE

Home | Current Version | Previous Version | Graphics & Text | Print | Product List | Glossary On
Versions: 1 2 3 4 5 6 7 8 9 10 11 12 13 14 15 16 17 18 19 20 21 22 23 24 25 26 27 28 29 30 31 32 33 34 35 36 37 38 39 40 41 42 43 44 45 46 47 48 49 50
000
AXUS43 KLBF 012110
MISLBF


WESTERN AND NORTH CENTRAL NEBRASKA HOURLY WEATHER ROUNDUP
NATIONAL WEATHER SERVICE NORTH PLATTE NE
400 PM CDT WED OCT 01 2014

***STATIONS NOT REPORTING VARIABLES SUCH AS SKY/WEATHER OR
PRESSURE ARE PROVIDED BY THE NEBRASKA DEPARTMENT OF
ROADS...RAWS...AND APRS NETWORKS...AND ARE NOT UNDER
NATIONAL WEATHER SERVICE QUALITY CONTROL***

...OBSERVATIONS IN AND NEAR THE EASTERN PANHANDLE OF NEBRASKA...

CITY           SKY/WX    TMP DP  RH WIND       PRES   REMARKS
PINE RIDGE     CLOUDY    59  48  67 N13       29.85S
CHADRON        PTSUNNY   60  46  59 NW13      29.86R
ALLIANCE       MOSUNNY   65  43  44 VRB5      29.83S
SIDNEY         PTSUNNY   67  42  40 NE6       29.85S
WHITECLAY        N/A     59  46  63 E8          N/A
RUSHVILLE        N/A     59  44  56 E17         N/A
CRESCENT LAKE    N/A     67  42  39 NE3         N/A
LISCO            N/A     71  39  30 W5          N/A
BIG SPRINGS      N/A     70  47  43 NE3         N/A
$$

...OBSERVATIONS IN NORTH CENTRAL NEBRASKA...

CITY           SKY/WX    TMP DP  RH WIND       PRES   REMARKS
VALENTINE      CLOUDY    70  46  42 N6        29.81S
THEDFORD       CLOUDY    71  48  43 N5        29.80S
AINSWORTH      MOSUNNY   69  46  44 NW6       29.80S
O`NEILL        MOSUNNY   72  52  49 NW10      29.77F
ORD            MOSUNNY   76  48  37 NW6       29.74F
BROKEN BOW     PTSUNNY   78  48  34 VRB7      29.76S
SPRINGVIEW       N/A     72  51  46 W6G13       N/A
ROSE             N/A     78  53  42 CALM        N/A
NEWPORT          N/A     73  50  43 NW6         N/A
SARGENT          N/A     74  49  40 NE3         N/A
COMSTOCK         N/A     80  52  37 E6          N/A
CHAMBERS         N/A     74  50  42 MISG        N/A
EWING            N/A     74  55  51 N7          N/A
$$

...OBSERVATIONS IN SOUTHWEST NEBRASKA AND FAR NORTHEAST COLORADO...

CITY           SKY/WX    TMP DP  RH WIND       PRES   REMARKS
WRAY           FAIR      75  39  27 E3        29.80F
HOLYOKE        FAIR      73  41  31 N5        29.81S
IMPERIAL       MOSUNNY   74  42  31 NE8       29.78F
OGALLALA       MOSUNNY   73  45  36 CALM      29.79S
NORTH PLATTE   MOSUNNY   76  45  33 MISG      29.77S
MCCOOK         MOSUNNY   78  45  30 VRB3      29.75F
LEXINGTON      MOSUNNY   74  53  48 CALM      29.75F
PAXTON           N/A     72  47  41 CALM        N/A
SUTHERLAND       N/A     78  40  24 CALM        N/A
BRADY            N/A     76  51  40 CALM        N/A
GOTHENBURG       N/A     78  43  28 CALM        N/A
CALLAWAY         N/A     75  51  42 CALM        N/A
$$

...SOME WEATHER OBSERVATIONS FROM AROUND THE REGION...

CITY           SKY/WX    TMP DP  RH WIND       PRES   REMARKS
DENVER         PTSUNNY   63  42  46 E23       29.80F
LARAMIE        LGT RAIN  36  34  92 N5        29.99S WCI  32
CHEYENNE       LGT RAIN  42  35  76 NW15      29.98R
SCOTTSBLUFF    PTSUNNY   62  46  55 N16G24    29.85R
RAPID CITY     LGT RAIN  52  46  80 N15       29.87S
PIERRE         MOSUNNY   70  48  45 NW22      29.77R
WINNER         FAIR      72  47  40 NW14      29.78S
SIOUX FALLS    PTSUNNY   76  55  48 NW3       29.72S
OMAHA          PTSUNNY   74  61  63 CALM      29.72S
GRAND ISLAND   MOSUNNY   78  52  40 SE3       29.74S
KANSAS CITY    PTSUNNY   79  69  71 S7        29.71F
WICHITA        MOSUNNY   90  61  37 S17       29.65F HX  90
HAYS           SUNNY     73  61  64 CALM      29.73S
LIBERAL        SUNNY     82  43  24 CALM      29.74F
GOODLAND       MOSUNNY   74  39  28 CALM      29.80S
$$



USA.gov is the U.S. government's official web portal to all federal, state and local government web resources and services.